{"data":{"norad_id":59136,"epoch":"2026-05-25T04:17:43.372608Z","epoch_age_seconds":58749,"freshness":"FRESH","line1":"1 59136U 24043AQ  26145.17897422  .00004243  00000+0  14776-3 0  9995","line2":"2 59136  97.5580 282.6710 0008822 323.2334  36.8300 15.30209224123561","mean_motion":15.30209224,"eccentricity":0.0008822,"inclination_deg":97.558,"raan_deg":282.671,"arg_perigee_deg":323.2334,"mean_anomaly_deg":36.83,"bstar":0.00014776,"rev_number":12356,"period_min":94.104778445643,"perigee_km":469.14152545739,"apogee_km":481.23353125522,"semimajor_km":6853.3245283563,"source":"CELESTRAK","updated_at":"2026-05-25T13:38:01.198562Z"}}